Home > Weather > Newport News > Past weeks

Flag for USA Past Weather in Newport News, Virginia, USA — Yesterday and Last 2 Weeks

Now
86 °F

Broken clouds.


Feels Like: 93 °F
Forecast: 76 / 86 °F
Wind: 7 mph from Southeast

Location: Newport News / Williamsburg International Airport

Current Time: Jul 30, 2016 at 11:13:21 AM

Latest Report: Jul 30, 2016 at 10:54 AM


Visibility: 10 mi

Pressure: 29.99 "Hg

Humidity: 65%

Dew Point: 73 °F

Location of Newport NewsLocation

Past Weather in Newport News — Graph

°F

Newport News Temperature Yesterday

Maximum temperature yesterday: 87 °F (at 1:54 PM)
Minimum temperature yesterday: 74 °F (at 11:54 PM)
Average temperature yesterday: 82 °F

High & Low Weather Summary for the Past Weeks

 TemperatureHumidityPressure
High96 °F (Jul 28, 4:54 PM)100% (Jul 18, 4:58 AM)30.19 "Hg (Jul 18, 4:58 AM)
Low67 °F (Jul 21, 4:54 AM)51% (Jul 21, 2:54 PM)29.78 "Hg (Jul 29, 3:54 AM)
Average82 °F77%30.01 "Hg
* Reported Jul 15 9:54 AM — Jul 30 9:54 AM, Newport News, Weather by CustomWeather, © 2016

Note: Actual official high and low records may vary slightly from our data, if they occured in-between our weather recording intervals... More about our weather records

Advertising

Newport News Weather History for the Previous 24 Hours

Scroll right to see more
 ConditionsComfort  
Time TempWeatherWind HumidityBarometerVisibility
9:54 AM
Sat, Jul 30
85 °FPartly sunny.5 mph68%29.99 "Hg10 mi
8:54 AM84 °FSunny.6 mph72%29.99 "Hg10 mi
7:54 AM81 °FSunny.No wind85%29.98 "Hg10 mi
6:54 AM75 °FClear.N/A94%29.97 "Hg9 mi
5:54 AM73 °FFog.No wind100%29.95 "Hg6 mi
4:54 AM74 °FClear.No wind97%29.94 "Hg8 mi
3:54 AM73 °FFog.No wind100%29.93 "Hg5 mi
2:54 AM73 °FClear.No wind100%29.93 "Hg9 mi
1:54 AM74 °FClear.No wind97%29.94 "Hg9 mi
12:54 AM73 °FClear.No wind97%29.95 "Hg10 mi
11:54 PM
Fri, Jul 29
74 °FClear.No wind97%29.95 "Hg10 mi
10:54 PM76 °FClear.No wind94%29.94 "Hg10 mi
9:54 PM76 °FClear.No wind94%29.93 "Hg10 mi
8:54 PM78 °FSunny.No wind90%29.92 "Hg10 mi
7:54 PM83 °FOvercast.3 mph72%29.91 "Hg10 mi
6:54 PM84 °FPartly sunny.3 mph70%29.90 "Hg10 mi
5:54 PM86 °FOvercast.7 mph67%29.89 "Hg10 mi
4:54 PM85 °FOvercast.6 mph68%29.88 "Hg10 mi
3:54 PM85 °FBroken clouds.9 mph68%29.87 "Hg10 mi
2:54 PM87 °FPartly sunny.6 mph67%29.88 "Hg10 mi
1:54 PM87 °FBroken clouds.7 mph65%29.86 "Hg10 mi
12:54 PM86 °FBroken clouds.3 mph70%29.86 "Hg10 mi
11:54 AM86 °FBroken clouds.8 mph67%29.86 "Hg10 mi
Weather by CustomWeather, © 2016

See weather overviewHow to use our weather pages